Tracking 19638 objects as of 19-May-2019
HD Live streaming from Space Station
objects crossing your sky now

USA 24

Track USA 24 now!
10-day predictions
USA 24 is classified as:


NORAD ID: 18010
Int'l Code: 1987-043F
Perigee: 412.1 km
Apogee: 1,780.0 km
Inclination: 63.3 °
Period: 107.0 minutes
Semi major axis: 7467 km
RCS: Unknown
Launch date: May 15, 1987
Source: United States (US)
Launch site: AIR FORCE WESTERN TEST RANGE (AFWTR)
aabbcc
Your satellite tracking list
Your tracking list is empty




NASA's NSSDC Master Catalog

Two Line Element Set (TLE):
1 18010U 87043F   19134.95488943 0.00001000  00000-0  10093-3 0    00
2 18010  63.3052  99.0751 0915967  56.6460 303.3540 13.45492791    09
Source of the keplerian elements: McCants